Time,TemperatureF,DewpointF,PressureIn,WindDirection,WindDirectionDegrees,WindSpeedMPH,WindSpeedGustMPH,Humidity,HourlyPrecipIn,Conditions,Clouds,dailyrainin,SoftwareType,DateUTC
2013-03-24 00:02:00,31.0,25.0,-100.00,NNE,25,12.0,16.0,76,0.00,,,-99.99,,2013-03-24 05:02:00,
2013-03-24 00:12:00,31.0,25.0,-100.00,NNE,20,9.0,16.0,76,0.00,,,-99.99,,2013-03-24 05:12:00,
2013-03-24 00:22:00,31.0,24.0,-100.00,NNE,25,14.0,21.0,76,0.00,,,-99.99,,2013-03-24 05:22:00,
2013-03-24 00:32:00,30.0,25.0,-100.00,NNE,30,12.0,19.0,79,0.43,,,-99.99,,2013-03-24 05:32:00,
2013-03-24 00:42:00,30.0,25.0,-100.00,NNE,30,12.0,19.0,79,0.43,,,-99.99,,2013-03-24 05:42:00,
2013-03-24 00:52:00,30.0,25.0,-100.00,NE,40,8.0,16.0,81,0.00,,,-99.99,,2013-03-24 05:52:00,
2013-03-24 01:02:00,30.0,25.0,-100.00,NE,40,8.0,16.0,81,0.00,,,-99.99,,2013-03-24 06:02:00,
2013-03-24 01:12:00,30.0,25.0,-100.00,NNE,30,11.0,16.0,82,0.00,,,-99.99,,2013-03-24 06:12:00,
2013-03-24 01:22:00,30.0,26.0,-100.00,NE,40,11.0,15.0,83,0.00,,,-99.99,,2013-03-24 06:22:00,
2013-03-24 01:32:00,30.0,26.0,-100.00,NE,45,7.0,12.0,84,0.00,,,-99.99,,2013-03-24 06:32:00,
2013-03-24 01:42:00,30.0,26.0,-100.00,NE,45,7.0,12.0,84,0.00,,,-99.99,,2013-03-24 06:42:00,
2013-03-24 01:52:00,30.0,26.0,-100.00,NNE,30,6.0,9.0,84,0.00,,,-99.99,,2013-03-24 06:52:00,
2013-03-24 02:02:00,30.0,26.0,-100.00,NNE,30,6.0,9.0,84,0.00,,,-99.99,,2013-03-24 07:02:00,
2013-03-24 02:12:00,30.0,26.0,-100.00,NNE,25,7.0,9.0,83,0.65,,,-99.99,,2013-03-24 07:12:00,
2013-03-24 02:22:00,30.0,26.0,-100.00,North,0,7.0,10.0,82,0.88,,,-99.99,,2013-03-24 07:22:00,
2013-03-24 02:32:00,30.0,26.0,-100.00,North,10,9.0,16.0,82,0.33,,,-99.99,,2013-03-24 07:32:00,
2013-03-24 02:42:00,30.0,26.0,-100.00,North,10,9.0,16.0,82,0.33,,,-99.99,,2013-03-24 07:42:00,
2013-03-24 02:52:00,30.0,26.0,-100.00,North,5,11.0,14.0,83,0.16,,,-99.99,,2013-03-24 07:52:00,
2013-03-24 03:03:00,30.0,26.0,-100.00,North,5,11.0,14.0,83,0.16,,,-99.99,,2013-03-24 08:03:00,
2013-03-24 03:12:00,30.0,26.0,-100.00,North,5,10.0,16.0,85,0.38,,,-99.99,,2013-03-24 08:12:00,
2013-03-24 03:22:00,30.0,27.0,-100.00,North,5,10.0,14.0,88,0.14,,,-99.99,,2013-03-24 08:22:00,
2013-03-24 03:32:00,29.0,27.0,-100.00,North,5,9.0,14.0,90,0.14,,,-99.99,,2013-03-24 08:32:00,
2013-03-24 03:42:00,29.0,27.0,-100.00,North,5,9.0,14.0,90,0.14,,,-99.99,,2013-03-24 08:42:00,
2013-03-24 03:52:00,29.0,27.0,-100.00,North,355,8.0,16.0,92,0.00,,,-99.99,,2013-03-24 08:52:00,
2013-03-24 04:02:00,29.0,27.0,-100.00,North,355,8.0,16.0,92,0.00,,,-99.99,,2013-03-24 09:02:00,
2013-03-24 04:12:00,29.0,28.0,-100.00,North,350,7.0,11.0,93,0.00,,,-99.99,,2013-03-24 09:12:00,
2013-03-24 04:22:00,29.0,28.0,-100.00,North,5,12.0,20.0,93,0.00,,,-99.99,,2013-03-24 09:22:00,
2013-03-24 04:33:00,29.0,27.0,-100.00,NW,325,12.0,21.0,91,0.00,,,-99.99,,2013-03-24 09:33:00,
2013-03-24 04:42:00,29.0,27.0,-100.00,NW,325,12.0,21.0,91,0.00,,,-99.99,,2013-03-24 09:42:00,
2013-03-24 04:52:00,28.0,26.0,-100.00,North,355,12.0,19.0,91,0.00,,,-99.99,,2013-03-24 09:52:00,
2013-03-24 05:03:00,28.0,26.0,-100.00,North,355,12.0,19.0,91,0.00,,,-99.99,,2013-03-24 10:03:00,
2013-03-24 05:12:00,28.0,26.0,-100.00,North,350,17.0,24.0,92,0.00,,,-99.99,,2013-03-24 10:12:00,
2013-03-24 05:22:00,28.0,26.0,-100.00,NNW,345,12.0,20.0,92,0.00,,,-99.99,,2013-03-24 10:22:00,
2013-03-24 05:32:00,28.0,26.0,-100.00,North,355,13.0,19.0,92,0.00,,,-99.99,,2013-03-24 10:32:00,
2013-03-24 05:42:00,28.0,26.0,-100.00,North,355,13.0,19.0,92,0.00,,,-99.99,,2013-03-24 10:42:00,
2013-03-24 05:52:00,28.0,26.0,-100.00,North,350,11.0,18.0,91,0.00,,,-99.99,,2013-03-24 10:52:00,
2013-03-24 06:03:00,28.0,26.0,-100.00,North,0,12.0,16.0,91,0.00,,,-99.99,,2013-03-24 11:03:00,
2013-03-24 06:12:00,28.0,25.0,-100.00,North,0,11.0,21.0,90,0.10,,,-99.99,,2013-03-24 11:12:00,
2013-03-24 06:22:00,27.0,25.0,-100.00,NNW,345,14.0,18.0,90,0.00,,,-99.99,,2013-03-24 11:22:00,
2013-03-24 06:32:00,27.0,25.0,-100.00,North,350,12.0,18.0,93,0.00,,,-99.99,,2013-03-24 11:32:00,
2013-03-24 06:42:00,27.0,25.0,-100.00,North,350,12.0,18.0,93,0.00,,,-99.99,,2013-03-24 11:42:00,
2013-03-24 06:52:00,27.0,25.0,-100.00,NNW,335,11.0,21.0,94,0.00,,,-99.99,,2013-03-24 11:52:00,
2013-03-24 07:02:00,27.0,25.0,-100.00,NNW,335,11.0,21.0,94,0.00,,,-99.99,,2013-03-24 12:02:00,
2013-03-24 07:12:00,27.0,26.0,-100.00,NNW,345,9.0,17.0,94,0.00,,,-99.99,,2013-03-24 12:12:00,
2013-03-24 07:22:00,27.0,25.0,-100.00,North,350,9.0,17.0,94,0.01,,,-99.99,,2013-03-24 12:22:00,
2013-03-24 07:32:00,26.0,25.0,-100.00,North,350,9.0,18.0,94,0.00,,,-99.99,,2013-03-24 12:32:00,
2013-03-24 07:42:00,26.0,25.0,-100.00,North,350,9.0,18.0,94,0.00,,,-99.99,,2013-03-24 12:42:00,
2013-03-24 07:52:00,27.0,26.0,-100.00,West,260,9.0,16.0,95,0.00,,,-99.99,,2013-03-24 12:52:00,
2013-03-24 08:02:00,27.0,26.0,-100.00,West,260,9.0,16.0,95,0.00,,,-99.99,,2013-03-24 13:02:00,
2013-03-24 08:12:00,27.0,26.0,-100.00,North,350,10.0,17.0,95,0.00,,,-99.99,,2013-03-24 13:12:00,
2013-03-24 08:22:00,27.0,26.0,-100.00,North,350,12.0,19.0,96,0.11,,,-99.99,,2013-03-24 13:22:00,
2013-03-24 08:32:00,27.0,26.0,-100.00,NNW,340,10.0,17.0,96,0.00,,,-99.99,,2013-03-24 13:32:00,
2013-03-24 08:42:00,27.0,26.0,-100.00,NNW,340,10.0,17.0,96,0.00,,,-99.99,,2013-03-24 13:42:00,
2013-03-24 08:52:00,27.0,26.0,-100.00,WNW,295,10.0,13.0,96,0.13,,,-99.99,,2013-03-24 13:52:00,
2013-03-24 09:02:00,27.0,26.0,-100.00,WNW,295,10.0,13.0,96,0.13,,,-99.99,,2013-03-24 14:02:00,
2013-03-24 09:12:00,27.0,26.0,-100.00,NNW,345,11.0,17.0,96,0.08,,,-99.99,,2013-03-24 14:12:00,
2013-03-24 09:22:00,27.0,26.0,-100.00,NNW,340,9.0,16.0,96,0.00,,,-99.99,,2013-03-24 14:22:00,
2013-03-24 09:32:00,27.0,26.0,-100.00,NNW,345,10.0,16.0,95,0.06,,,-99.99,,2013-03-24 14:32:00,
2013-03-24 09:42:00,27.0,26.0,-100.00,NNW,345,10.0,16.0,95,0.06,,,-99.99,,2013-03-24 14:42:00,
2013-03-24 09:52:00,27.0,26.0,-100.00,WSW,250,11.0,19.0,94,0.14,,,-99.99,,2013-03-24 14:52:00,
2013-03-24 10:02:00,27.0,26.0,-100.00,WSW,250,11.0,19.0,94,0.14,,,-99.99,,2013-03-24 15:02:00,
2013-03-24 10:12:00,27.0,26.0,-100.00,NNW,340,14.0,19.0,94,0.50,,,-99.99,,2013-03-24 15:12:00,
2013-03-24 10:22:00,28.0,26.0,-100.00,WSW,255,12.0,19.0,94,0.65,,,-99.99,,2013-03-24 15:22:00,
2013-03-24 10:33:00,28.0,26.0,-100.00,NNW,340,12.0,17.0,94,1.35,,,-99.99,,2013-03-24 15:33:00,
2013-03-24 10:43:00,28.0,26.0,-100.00,NNW,340,12.0,17.0,94,1.35,,,-99.99,,2013-03-24 15:43:00,
2013-03-24 10:53:00,28.0,27.0,-100.00,NNW,340,10.0,16.0,94,0.17,,,-99.99,,2013-03-24 15:53:00,
2013-03-24 11:03:00,28.0,27.0,-100.00,NNW,340,10.0,16.0,94,0.17,,,-99.99,,2013-03-24 16:03:00,
2013-03-24 11:12:00,28.0,27.0,-100.00,NNW,345,10.0,17.0,94,0.47,,,-99.99,,2013-03-24 16:12:00,
2013-03-24 11:22:00,28.0,27.0,-100.00,NNW,345,10.0,21.0,94,0.35,,,-99.99,,2013-03-24 16:22:00,
2013-03-24 11:33:00,28.0,27.0,-100.00,NNW,340,12.0,18.0,94,0.24,,,-99.99,,2013-03-24 16:33:00,
2013-03-24 11:42:00,28.0,27.0,-100.00,West,260,14.0,19.0,94,0.00,,,-99.99,,2013-03-24 16:42:00,
2013-03-24 11:52:00,28.0,27.0,-100.00,NNW,345,20.0,25.0,94,0.00,,,-99.99,,2013-03-24 16:52:00,
2013-03-24 12:02:00,28.0,27.0,-100.00,NNW,345,20.0,25.0,94,0.00,,,-99.99,,2013-03-24 17:02:00,
2013-03-24 12:12:00,29.0,27.0,-100.00,West,260,12.0,24.0,94,0.00,,,-99.99,,2013-03-24 17:12:00,
2013-03-24 12:22:00,29.0,27.0,-100.00,North,355,14.0,21.0,94,0.00,,,-99.99,,2013-03-24 17:22:00,
2013-03-24 12:33:00,29.0,27.0,-100.00,NNW,340,11.0,21.0,93,0.00,,,-99.99,,2013-03-24 17:33:00,
2013-03-24 12:42:00,29.0,27.0,-100.00,NNW,340,11.0,21.0,93,0.00,,,-99.99,,2013-03-24 17:42:00,
2013-03-24 12:52:00,29.0,27.0,-100.00,NNW,330,14.0,20.0,91,0.50,,,-99.99,,2013-03-24 17:52:00,
2013-03-24 13:03:00,29.0,27.0,-100.00,NNW,330,14.0,20.0,91,0.50,,,-99.99,,2013-03-24 18:03:00,
2013-03-24 13:12:00,29.0,27.0,-100.00,North,350,14.0,21.0,91,0.00,,,-99.99,,2013-03-24 18:12:00,
2013-03-24 13:22:00,29.0,27.0,-100.00,NNW,345,12.0,16.0,90,0.78,,,-99.99,,2013-03-24 18:22:00,
2013-03-24 13:32:00,29.0,27.0,-100.00,NNW,345,16.0,22.0,90,0.00,,,-99.99,,2013-03-24 18:32:00,
2013-03-24 13:42:00,29.0,27.0,-100.00,NNW,345,16.0,22.0,90,0.00,,,-99.99,,2013-03-24 18:42:00,
2013-03-24 13:52:00,30.0,27.0,-100.00,WSW,250,12.0,18.0,90,0.92,,,-99.99,,2013-03-24 18:52:00,
2013-03-24 14:02:00,30.0,27.0,-100.00,WSW,250,12.0,18.0,90,0.92,,,-99.99,,2013-03-24 19:02:00,
2013-03-24 14:12:00,30.0,27.0,-100.00,NNW,345,14.0,21.0,90,0.89,,,-99.99,,2013-03-24 19:12:00,
2013-03-24 14:22:00,30.0,27.0,-100.00,NNW,345,13.0,21.0,90,1.11,,,-99.99,,2013-03-24 19:22:00,
2013-03-24 14:32:00,30.0,28.0,-100.00,NNW,345,16.0,22.0,91,0.94,,,-99.99,,2013-03-24 19:32:00,
2013-03-24 14:42:00,30.0,28.0,-100.00,NNW,345,16.0,22.0,91,0.94,,,-99.99,,2013-03-24 19:42:00,
2013-03-24 14:52:00,30.0,28.0,-100.00,NNW,345,17.0,24.0,91,0.71,,,-99.99,,2013-03-24 19:52:00,
2013-03-24 15:02:00,30.0,28.0,-100.00,NNW,345,17.0,24.0,91,0.71,,,-99.99,,2013-03-24 20:02:00,
2013-03-24 15:12:00,30.0,28.0,-100.00,WSW,245,17.0,24.0,91,0.38,,,-99.99,,2013-03-24 20:12:00,
2013-03-24 15:22:00,31.0,28.0,-100.00,NNW,345,12.0,22.0,91,0.01,,,-99.99,,2013-03-24 20:22:00,
2013-03-24 15:32:00,30.0,28.0,-100.00,NNW,345,19.0,27.0,91,0.59,,,-99.99,,2013-03-24 20:32:00,
2013-03-24 15:42:00,30.0,28.0,-100.00,NNW,345,19.0,27.0,91,0.59,,,-99.99,,2013-03-24 20:42:00,
2013-03-24 15:52:00,30.0,28.0,-100.00,WSW,240,13.0,24.0,91,0.01,,,-99.99,,2013-03-24 20:52:00,
2013-03-24 16:02:00,30.0,28.0,-100.00,WSW,240,13.0,24.0,91,0.01,,,-99.99,,2013-03-24 21:02:00,
2013-03-24 16:12:00,31.0,28.0,-100.00,West,260,17.0,21.0,91,0.44,,,-99.99,,2013-03-24 21:12:00,
2013-03-24 16:22:00,31.0,29.0,-100.00,WSW,250,18.0,24.0,91,0.58,,,-99.99,,2013-03-24 21:22:00,
2013-03-24 16:33:00,31.0,29.0,-100.00,NNW,345,13.0,25.0,92,0.41,,,-99.99,,2013-03-24 21:33:00,
2013-03-24 16:43:00,31.0,29.0,-100.00,NNW,345,13.0,25.0,92,0.41,,,-99.99,,2013-03-24 21:43:00,
2013-03-24 16:52:00,31.0,29.0,-100.00,WSW,255,14.0,20.0,94,0.51,,,-99.99,,2013-03-24 21:52:00,
2013-03-24 17:02:00,31.0,29.0,-100.00,WSW,255,14.0,20.0,94,0.51,,,-99.99,,2013-03-24 22:02:00,
2013-03-24 17:13:00,31.0,30.0,-100.00,SW,220,10.0,21.0,94,0.08,,,-99.99,,2013-03-24 22:13:00,
2013-03-24 17:22:00,31.0,30.0,-100.00,SW,225,10.0,17.0,95,1.32,,,-99.99,,2013-03-24 22:22:00,
2013-03-24 17:33:00,31.0,30.0,-100.00,SW,220,12.0,17.0,96,0.55,,,-99.99,,2013-03-24 22:33:00,
2013-03-24 17:42:00,31.0,30.0,-100.00,SW,220,12.0,17.0,96,0.55,,,-99.99,,2013-03-24 22:42:00,
2013-03-24 17:52:00,31.0,30.0,-100.00,SSW,210,12.0,19.0,96,0.79,,,-99.99,,2013-03-24 22:52:00,
2013-03-24 18:02:00,31.0,30.0,-100.00,SSW,210,12.0,19.0,96,0.79,,,-99.99,,2013-03-24 23:02:00,
2013-03-24 18:12:00,31.0,30.0,-100.00,SW,215,16.0,20.0,96,0.47,,,-99.99,,2013-03-24 23:12:00,
2013-03-24 18:22:00,31.0,30.0,-100.00,West,265,10.0,21.0,96,0.54,,,-99.99,,2013-03-24 23:22:00,
2013-03-24 18:32:00,31.0,30.0,-100.00,NNW,345,11.0,16.0,98,0.10,,,-99.99,,2013-03-24 23:32:00,
2013-03-24 18:42:00,31.0,30.0,-100.00,NNW,345,11.0,16.0,98,0.10,,,-99.99,,2013-03-24 23:42:00,
2013-03-24 18:52:00,30.0,30.0,-100.00,NNW,340,11.0,17.0,99,0.43,,,-99.99,,2013-03-24 23:52:00,
2013-03-24 19:02:00,30.0,30.0,-100.00,NNW,340,11.0,17.0,99,0.43,,,-99.99,,2013-03-25 00:02:00,
2013-03-24 19:12:00,30.0,30.0,-100.00,WSW,250,9.0,14.0,99,0.48,,,-99.99,,2013-03-25 00:12:00,
2013-03-24 19:22:00,30.0,30.0,-100.00,West,265,7.0,14.0,99,1.16,,,-99.99,,2013-03-25 00:22:00,
2013-03-24 19:32:00,30.0,30.0,-100.00,NNW,335,14.0,22.0,99,0.33,,,-99.99,,2013-03-25 00:32:00,
2013-03-24 19:42:00,30.0,30.0,-100.00,NNW,335,14.0,22.0,99,0.33,,,-99.99,,2013-03-25 00:42:00,
2013-03-24 19:52:00,29.0,29.0,-100.00,WSW,250,13.0,21.0,99,0.00,,,-99.99,,2013-03-25 00:52:00,
2013-03-24 20:02:00,29.0,29.0,-100.00,WSW,250,13.0,21.0,99,0.00,,,-99.99,,2013-03-25 01:02:00,
2013-03-24 20:12:00,29.0,29.0,-100.00,NW,325,9.0,17.0,99,0.00,,,-99.99,,2013-03-25 01:12:00,
2013-03-24 20:22:00,29.0,29.0,-100.00,SW,220,8.0,14.0,99,0.00,,,-99.99,,2013-03-25 01:22:00,
2013-03-24 20:32:00,29.0,29.0,-100.00,SW,215,10.0,18.0,99,0.00,,,-99.99,,2013-03-25 01:32:00,
2013-03-24 20:42:00,29.0,29.0,-100.00,WSW,250,11.0,14.0,99,0.00,,,-99.99,,2013-03-25 01:42:00,
2013-03-24 20:52:00,29.0,29.0,-100.00,SSW,205,10.0,18.0,99,0.00,,,-99.99,,2013-03-25 01:52:00,
2013-03-24 21:02:00,29.0,29.0,-100.00,NNW,345,10.0,17.0,99,0.00,,,-99.99,,2013-03-25 02:02:00,
2013-03-24 21:12:00,29.0,29.0,-100.00,NW,325,9.0,17.0,99,0.00,,,-99.99,,2013-03-25 02:12:00,
2013-03-24 21:22:00,29.0,29.0,-100.00,WSW,240,13.0,19.0,99,0.00,,,-99.99,,2013-03-25 02:22:00,
2013-03-24 21:32:00,29.0,29.0,-100.00,WSW,245,11.0,17.0,99,0.00,,,-99.99,,2013-03-25 02:32:00,
2013-03-24 21:42:00,29.0,29.0,-100.00,SW,225,10.0,16.0,99,0.10,,,-99.99,,2013-03-25 02:42:00,
2013-03-24 21:52:00,29.0,29.0,-100.00,West,260,12.0,17.0,99,0.00,,,-99.99,,2013-03-25 02:52:00,
2013-03-24 22:02:00,29.0,29.0,-100.00,West,260,8.0,17.0,99,0.00,,,-99.99,,2013-03-25 03:02:00,
2013-03-24 22:13:00,29.0,29.0,-100.00,West,265,11.0,19.0,99,0.00,,,-99.99,,2013-03-25 03:13:00,
2013-03-24 22:22:00,29.0,29.0,-100.00,WSW,250,10.0,20.0,99,0.00,,,-99.99,,2013-03-25 03:22:00,
2013-03-24 22:33:00,28.0,28.0,-100.00,WSW,250,10.0,16.0,99,0.00,,,-99.99,,2013-03-25 03:33:00,
2013-03-24 22:42:00,28.0,28.0,-100.00,West,260,11.0,17.0,99,0.10,,,-99.99,,2013-03-25 03:42:00,
2013-03-24 22:52:00,28.0,28.0,-100.00,SW,225,11.0,17.0,99,0.18,,,-99.99,,2013-03-25 03:52:00,
2013-03-24 23:02:00,28.0,28.0,-100.00,SW,225,11.0,17.0,99,0.18,,,-99.99,,2013-03-25 04:02:00,
2013-03-24 23:12:00,28.0,28.0,-100.00,NNW,345,13.0,19.0,99,0.00,,,-99.99,,2013-03-25 04:12:00,
2013-03-24 23:22:00,28.0,28.0,-100.00,NNW,345,10.0,21.0,99,0.00,,,-99.99,,2013-03-25 04:22:00,
2013-03-24 23:33:00,28.0,28.0,-100.00,SW,235,14.0,21.0,99,0.00,,,-99.99,,2013-03-25 04:33:00,
2013-03-24 23:42:00,28.0,28.0,-100.00,SW,235,14.0,21.0,99,0.00,,,-99.99,,2013-03-25 04:42:00,
2013-03-24 23:52:00,28.0,28.0,-100.00,NNW,335,12.0,19.0,99,0.00,,,-99.99,,2013-03-25 04:52:00,